Location: ??????
(30.0081°N, 31.2109°E)
Time: 08:23:18
(UTC+00:00)

H-2A R/B - Pass Details

Date: 03 March 2021
Orbit: 732 x 837 km, 98.2° (Epoch: 15 April)

Event Time Altitude Azimuth Distance (km) Brightness Sun altitude
Rises 16:15:42 0° 151° (SSE) 3,347 5.1 -5.1°
Reaches altitude 10° 16:18:07 10° 145° (SE) 2,426 4.3 -5.7°
Maximum altitude 16:23:14 46° 73° (ENE) 1,118 2.5 -6.8°
Drops below altitude 10° 16:28:25 10° 2° (N) 2,453 4.6 -7.9°
Sets 16:30:52 0° 357° (N) 3,388 5.4 -8.4°
